| time (UTC) | temp F | wind direction | speed knots | gust knots | rain 1hr in | rain 24hr in | rain mn in | humidity % | barometer mb |
| 20260505035956 | 56 | 223 | 11.3 | 20.9 | 0.00 | 0.00 | 0.00 | 55 | 1006.5 |
| 20260505033815 | 56 | 194 | 11.3 | 20.0 | 0.00 | 0.00 | 0.00 | 54 | 1006.5 |
| 20260505032810 | 56 | 203 | 11.3 | 19.1 | 0.00 | 0.00 | 0.00 | 53 | 1006.7 |
| 20260505031831 | 56 | 199 | 11.3 | 19.1 | 0.00 | 0.00 | 0.00 | 52 | 1006.8 |
| 20260505030758 | 56 | 4 | 12.2 | 20.0 | 0.00 | 0.00 | 0.00 | 50 | 1006.7 |
| 20260505025732 | 57 | 202 | 14.8 | 23.5 | 0.00 | 0.00 | 0.00 | 49 | 1006.4 |
| 20260505024751 | 57 | 230 | 13.9 | 23.5 | 0.00 | 0.00 | 0.00 | 47 | 1006.0 |
| 20260505023751 | 58 | 179 | 12.2 | 26.1 | 0.00 | 0.00 | 0.00 | 44 | 1005.9 |
| 20260505022725 | 59 | 237 | 14.8 | 26.1 | 0.00 | 0.00 | 0.00 | 40 | 1005.7 |
| 20260505021654 | 61 | 212 | 13.9 | 22.6 | 0.00 | 0.00 | 0.00 | 35 | 1005.9 |
| 20260505014416 | 63 | 213 | 10.4 | 17.4 | 0.00 | 0.00 | 0.00 | 31 | 1005.4 |
| 20260505013426 | 63 | 192 | 9.6 | 19.1 | 0.00 | 0.00 | 0.00 | 30 | 1005.2 |
| 20260505011238 | 64 | 174 | 12.2 | 24.3 | 0.00 | 0.00 | 0.00 | 28 | 1005.0 |
| 20260505010207 | 65 | 203 | 13.0 | 26.9 | 0.00 | 0.00 | 0.00 | 26 | 1004.7 |
| 20260505005209 | 66 | 175 | 13.0 | 26.9 | 0.00 | 0.00 | 0.00 | 25 | 1004.6 |
| 20260505003116 | 67 | 186 | 13.0 | 24.3 | 0.00 | 0.00 | 0.00 | 22 | 1004.5 |
| 20260505002116 | 68 | 163 | 11.3 | 17.4 | 0.00 | 0.00 | 0.00 | 20 | 1004.3 |
| 20260505001053 | 68 | 173 | 13.0 | 24.3 | 0.00 | 0.00 | 0.00 | 20 | 1004.3 |
| 20260505000116 | 68 | 173 | 11.3 | 24.3 | 0.00 | 0.00 | 0.00 | 20 | 1004.4 |
| 20260504235126 | 68 | 214 | 12.2 | 23.5 | 0.00 | 0.00 | 0.00 | 21 | 1004.6 |
| 20260504234102 | 68 | 154 | 12.2 | 18.2 | 0.00 | 0.00 | 0.00 | 20 | 1004.7 |
| 20260504233109 | 69 | 205 | 11.3 | 21.7 | 0.00 | 0.00 | 0.00 | 19 | 1004.8 |
| 20260504232118 | 69 | 211 | 13.9 | 21.7 | 0.00 | 0.00 | 0.00 | 20 | 1004.8 |
| 20260504230036 | 70 | 154 | 11.3 | 20.0 | 0.00 | 0.00 | 0.00 | 19 | 1004.7 |
| 20260504225054 | 71 | 204 | 11.3 | 20.9 | 0.00 | 0.00 | 0.00 | 20 | 1004.8 |
| 20260504224035 | 71 | 4 | 12.2 | 20.9 | 0.00 | 0.00 | 0.00 | 19 | 1004.9 |
| 20260504223058 | 72 | 194 | 11.3 | 20.0 | 0.00 | 0.00 | 0.00 | 19 | 1005.1 |
| 20260504222121 | 71 | 167 | 9.6 | 20.0 | 0.00 | 0.00 | 0.00 | 20 | 1005.1 |
| 20260504221052 | 71 | 173 | 10.4 | 19.1 | 0.00 | 0.00 | 0.00 | 21 | 1005.3 |
| 20260504214914 | 70 | 223 | 11.3 | 21.7 | 0.00 | 0.00 | 0.00 | 20 | 1005.4 |
| 20260504213843 | 71 | 194 | 11.3 | 21.7 | 0.00 | 0.00 | 0.00 | 19 | 1005.7 |
| 20260504212840 | 71 | 4 | 10.4 | 20.9 | 0.00 | 0.00 | 0.00 | 21 | 1005.9 |
| 20260504210719 | 71 | 4 | 10.4 | 20.0 | 0.00 | 0.00 | 0.00 | 22 | 1006.1 |
| 20260504205718 | 71 | 179 | 9.6 | 23.5 | 0.00 | 0.00 | 0.00 | 22 | 1006.6 |
| 20260504204659 | 71 | 212 | 11.3 | 23.5 | 0.00 | 0.00 | 0.00 | 22 | 1006.7 |
| 20260504203646 | 71 | 222 | 12.2 | 20.0 | 0.00 | 0.00 | 0.00 | 22 | 1006.9 |
| 20260504201502 | 70 | 195 | 12.2 | 23.5 | 0.00 | 0.00 | 0.00 | 20 | 1006.9 |
| 20260504200437 | 70 | 180 | 9.6 | 22.6 | 0.00 | 0.00 | 0.00 | 21 | 1007.0 |
| 20260504195406 | 69 | 188 | 13.0 | 22.6 | 0.00 | 0.00 | 0.00 | 22 | 1007.2 |
| 20260504194416 | 69 | 195 | 12.2 | 20.0 | 0.00 | 0.00 | 0.00 | 21 | 1006.9 |
| 20260504193415 | 70 | 200 | 10.4 | 20.0 | 0.00 | 0.00 | 0.00 | 21 | 1007.1 |
| 20260504192419 | 69 | 171 | 11.3 | 16.5 | 0.00 | 0.00 | 0.00 | 22 | 1006.9 |
| 20260504191443 | 69 | 239 | 12.2 | 22.6 | 0.00 | 0.00 | 0.00 | 22 | 1007.0 |
| 20260504190425 | 69 | 222 | 13.0 | 22.6 | 0.00 | 0.00 | 0.00 | 20 | 1007.2 |
| 20260504185405 | 69 | 229 | 13.0 | 23.5 | 0.00 | 0.00 | 0.00 | 21 | 1007.3 |
| 20260504182050 | 68 | 222 | 11.3 | 20.9 | 0.00 | 0.00 | 0.00 | 22 | 1007.3 |
| 20260504181056 | 68 | 244 | 9.6 | 17.4 | 0.00 | 0.00 | 0.00 | 24 | 1007.2 |
| 20260504180104 | 67 | 176 | 10.4 | 17.4 | 0.00 | 0.00 | 0.00 | 24 | 1007.5 |
| 20260504175118 | 67 | 188 | 9.6 | 16.5 | 0.00 | 0.00 | 0.00 | 27 | 1007.5 |
| 20260504174117 | 67 | 175 | 9.6 | 18.2 | 0.00 | 0.00 | 0.00 | 28 | 1007.5 |
| 20260504173128 | 66 | 161 | 9.6 | 18.2 | 0.00 | 0.00 | 0.00 | 30 | 1007.8 |
| 20260504172135 | 65 | 180 | 9.6 | 17.4 | 0.00 | 0.00 | 0.00 | 32 | 1007.9 |
| 20260504171140 | 65 | 173 | 8.7 | 17.4 | 0.00 | 0.00 | 0.00 | 31 | 1008.2 |
| 20260504140656 | 59 | 203 | 4.3 | 9.6 | 0.00 | 0.00 | 0.00 | 40 | 1008.2 |
| 20260504130527 | 55 | 250 | 3.5 | 11.3 | 0.00 | 0.00 | 0.00 | 43 | 1007.5 |
| 20260504110313 | 54 | 242 | 2.6 | 7.0 | 0.00 | 0.00 | 0.00 | 39 | 1007.7 |
| 20260504050329 | 61 | 43 | 0.0 | 1.7 | 0.00 | 0.00 | 0.00 | 50 | 1008.8 |
| 20260504045318 | 60 | 42 | 0.9 | 1.7 | 0.00 | 0.00 | 0.00 | 51 | 1008.9 |
| 20260504043235 | 60 | 36 | 1.7 | 3.5 | 0.00 | 0.00 | 0.00 | 51 | 1009.0 |
| 20260504042217 | 61 | 42 | 1.7 | 3.5 | 0.00 | 0.00 | 0.00 | 49 | 1009.3 |
| 20260504041152 | 62 | 59 | 0.9 | 1.7 | 0.00 | 0.00 | 0.00 | 49 | 1009.2 |
| 20260504040149 | 62 | 59 | 0.9 | 1.7 | 0.00 | 0.00 | 0.00 | 48 | 1009.1 |